This demonstration page uses our WeatherBlox Daily Observations layout. Learn more.

Left ArrowRight Arrow

Hourly Observations for May 14, 2015

Temp ( °F °C ) Dew Point ( °F °C ) Humidity (%) Winds ( mph kmh ) Pressure ( in mb ) Visibility ( mi km ) Precip ( " mm )
12:00 am 00:00 Mostly Clear with Light Rain 55 13 52 11 88 88 E 9 15 30.09 1019 9 14 0.00 0.00
12:42 am 00:42 Clear with Rain 55 13 52 11 88 88 E 8 13 30.09 1019 6 10 0.00 0.00
12:46 am 00:46 Mostly Clear with Rain 55 13 52 11 88 88 E 8 13 30.06 1018 5 8 0.00 0.00
12:58 am 00:58 Mostly Clear with Light Rain 55 12.8 52 11.3 91 91 E 8 13 30.07 1018 7 11 0.06 1.52
1:16 am 01:16 Clear 55 13 52 11 88 88 E 12 19 30.06 1018 7 11 0.00 0.00
1:22 am 01:22 Cloudy with Rain 55 13 52 11 88 88 VRB 6 9 30.06 1018 5 8 0.00 0.00
1:58 am 01:58 Mostly Cloudy with Light Rain 55 12.8 52 10.9 88 88 E 9 15 30.05 1018 8 13 0.07 1.78
2:11 am 02:11 Mostly Cloudy with Light Rain 55 13 52 11 88 88 E 10 17 30.03 1017 9 14 0.00 0.00
2:20 am 02:20 Mostly Cloudy with Rain 55 13 52 11 88 88 E 12 19 30.03 1017 5 8 0.00 0.00
2:57 am 02:57 Cloudy with Light Rain 54 12 52 11 94 94 ESE 10 17 30.03 1017 7 11 0.00 0.00
2:58 am 02:58 Cloudy with Light Rain 54 12 52 11 94 94 ESE 10 17 30.01 1016 7 11 0.10 2.54
3:00 am 03:00 Cloudy with Light Rain 54 12 52 11 94 94 ESE 12 19 30.00 1016 7 11 0.00 0.00
3:44 am 03:44 Cloudy with Light Rain 54 12 52 11 94 94 ESE 13 20 30.00 1016 7 11 0.00 0.00
3:58 am 03:58 Cloudy with Light Rain 54 12.4 53 11.5 94 94 ESE 13 20 30.00 1016 7 11 0.09 2.29
4:01 am 04:01 Cloudy with Light Rain 54 12 52 11 94 94 ESE 9 15 30.00 1016 7 11 0.00 0.00
4:06 am 04:06 Cloudy with Light Rain 54 12 52 11 94 94 ESE 13 20 30.00 1016 7 11 0.00 0.00
4:07 am 04:07 Cloudy with Light Rain 54 12 52 11 94 94 ESE 12 19 30.00 1016 7 11 0.00 0.00
4:13 am 04:13 Cloudy with Light Rain 54 12 52 11 94 94 ESE 13 20 30.00 1016 8 13 0.00 0.00
4:23 am 04:23 Cloudy with Light Rain 54 12 52 11 94 94 ESE 12 19 30.00 1016 7 11 0.00 0.00
4:31 am 04:31 Cloudy with Light Rain 54 12 52 11 94 94 ESE 12 19 29.97 1015 8 13 0.00 0.00
4:48 am 04:48 Cloudy with Light Rain 54 12 52 11 94 94 ESE 12 19 29.97 1015 6 10 0.00 0.00
4:58 am 04:58 Cloudy with Rain 54 12.3 53 11.4 94 94 ESE 12 19 29.98 1015 4 6 0.08 2.03
5:12 am 05:12 Cloudy with Light Rain 54 12 54 12 100 100 SE 12 19 29.97 1015 7 11 0.00 0.00
5:15 am 05:15 Cloudy with Light Rain 54 12 52 11 94 94 SE 9 15 29.97 1015 8 13 0.00 0.00
5:26 am 05:26 Cloudy with Light Rain 54 12 54 12 100 100 SE 12 19 29.97 1015 9 14 0.00 0.00
5:35 am 05:35 Cloudy with Rain 55 13 54 12 94 94 SE 14 22 29.97 1015 8 13 0.00 0.00
5:41 am 05:41 Cloudy with Rain 55 13 54 12 94 94 SE 13 20 29.97 1015 6 10 0.00 0.00
5:50 am 05:50 Cloudy with Light Rain 55 13 54 12 94 94 SE 13 20 29.97 1015 7 11 0.00 0.00
5:52 am 05:52 Cloudy with Light Rain 55 13 54 12 94 94 SE 12 19 29.97 1015 7 11 0.00 0.00
5:58 am 05:58 Cloudy with Rain 55 12.6 53 11.8 95 95 SE 13 20 29.96 1015 7 11 0.09 2.29
6:30 am 06:30 Cloudy with Light Rain 55 13 54 12 94 94 SE 10 17 29.94 1014 7 11 0.00 0.00
6:50 am 06:50 Cloudy 55 13 54 12 94 94 SE 12 19 29.94 1014 10 16 0.00 0.00
6:58 am 06:58 Cloudy 55 12.8 54 12 95 95 SE 12 19 29.96 1014 10 16 0.04 1.02
7:03 am 07:03 Cloudy with Light Rain 55 13 54 12 94 94 SE 13 20 29.94 1014 10 16 0.00 0.00
7:28 am 07:28 Cloudy with Light Rain 55 13 54 12 94 94 SE 9 15 29.94 1014 9 14 0.00 0.00
7:41 am 07:41 Cloudy with Light Rain 55 13 54 12 94 94 SE 12 19 29.94 1014 7 11 0.00 0.00
7:58 am 07:58 Cloudy with Light Rain 56 13.2 55 12.6 96 96 SE 13 20 29.96 1015 9 14 0.03 0.76
8:10 am 08:10 Cloudy with Light Rain 55 13 55 13 100 100 SE 13 20 29.94 1014 3 5 0.00 0.00
8:26 am 08:26 Cloudy with Light Rain 55 13 55 13 100 100 SE 12 19 29.94 1014 3 5 0.00 0.00
8:45 am 08:45 Cloudy with Light Rain 57 14 55 13 94 94 SE 15 24 29.94 1014 3 5 0.00 0.00
8:55 am 08:55 Cloudy with Light Rain 57 14 55 13 94 94 SE 13 20 29.94 1014 3 5 0.00 0.00
8:58 am 08:58 Cloudy with Light Rain 57 13.7 56 13.1 96 96 SE 13 20 29.95 1014 3 5 0.05 1.27
9:04 am 09:04 Cloudy with Light Rain 57 14 55 13 94 94 SE 13 20 29.94 1014 3 5 0.00 0.00
9:40 am 09:40 Cloudy 57 14 55 13 94 94 SE 13 20 29.94 1014 9 14 0.00 0.00
9:49 am 09:49 Cloudy with Light Rain 57 14 55 13 94 94 SE 13 20 29.94 1014 10 16 0.00 0.00
9:58 am 09:58 Cloudy with Light Rain 58 14.2 56 13.4 95 95 SE 13 20 29.95 1014 10 16 0.03 0.76
10:49 am 10:49 Cloudy with Rain 59 15 57 14 94 94 SSE 9 15 29.91 1013 7 11 0.00 0.00
10:58 am 10:58 Cloudy with Rain 58 14.6 57 13.8 95 95 SE 10 17 29.93 1014 5 8 0.04 1.02
11:10 am 11:10 Cloudy with Heavy Rain 59 15 57 14 94 94 SE 10 17 29.88 1012 4 6 0.00 0.00
11:15 am 11:15 Cloudy with Heavy Rain 59 15 57 14 94 94 SE 8 13 29.91 1013 4 6 0.00 0.00
11:38 am 11:38 Cloudy with Light Rain 59 15 57 14 94 94 SE 8 13 29.88 1012 9 14 0.00 0.00
11:53 am 11:53 Cloudy with Light Rain 59 15 59 15 100 100 SSE 9 15 29.88 1012 9 14 0.00 0.00
11:58 am 11:58 Cloudy with Light Rain 59 15.2 58 14.6 96 96 SSE 9 15 29.93 1014 10 16 0.11 2.79
12:02 pm 12:02 Cloudy 59 15 59 15 100 100 SE 8 13 29.88 1012 10 16 0.00 0.00
12:16 pm 12:16 Cloudy with Light Rain 61 16 59 15 94 94 SSE 7 11 29.88 1012 10 16 0.00 0.00
12:33 pm 12:33 Cloudy with Light Rain 61 16 59 15 94 94 SSE 8 13 29.88 1012 8 13 0.00 0.00
12:39 pm 12:39 Cloudy 61 16 59 15 94 94 SSE 10 17 29.88 1012 10 16 0.00 0.00
12:46 pm 12:46 Cloudy with Light Rain 61 16 59 15 94 94 SSE 10 17 29.88 1012 9 14 0.00 0.00
12:58 pm 12:58 Cloudy with Drizzle 61 16 60 15.4 96 96 SSE 10 17 29.91 1013 10 16 0.02 0.51
1:11 pm 13:11 Cloudy 61 16 61 16 100 100 SSE 10 17 29.88 1012 10 16 0.00 0.00
1:26 pm 13:26 Cloudy 61 16 61 16 100 100 SSE 8 13 29.88 1012 10 16 0.00 0.00
1:37 pm 13:37 Cloudy 61 16 61 16 100 100 SSE 8 13 29.88 1012 10 16 0.00 0.00
1:58 pm 13:58 Cloudy 62 16.7 61 16.1 96 96 SSE 9 15 29.90 1012 10 16 0.00 0.03
2:14 pm 14:14 Cloudy with Mist and Fog 63 17 61 16 94 94 SSE 7 11 29.85 1011 6 10 0.00 0.00
2:58 pm 14:58 Cloudy with Mist and Fog 63 17.2 62 16.6 96 96 VRB 5 7 29.89 1012 5 8 0.00 0.00
3:06 pm 15:06 Cloudy with Drizzle 63 17 63 17 100 100 S 5 7 29.85 1011 4 6 0.00 0.00
3:16 pm 15:16 Cloudy 63 17 63 17 100 100 S 6 9 29.85 1011 9 14 0.00 0.00
3:23 pm 15:23 Cloudy with Light Rain 63 17 63 17 100 100 S 6 9 29.85 1011 10 16 0.00 0.00
3:27 pm 15:27 Cloudy with Light Rain 64 18 63 17 94 94 S 5 7 29.85 1011 9 14 0.00 0.00
3:35 pm 15:35 Cloudy with Light Rain 64 18 63 17 94 94 S 5 7 29.85 1011 8 13 0.00 0.00
3:47 pm 15:47 Mostly Cloudy with Light Rain 64 18 63 17 94 94 SSW 7 11 29.85 1011 9 14 0.00 0.00
3:50 pm 15:50 Mostly Cloudy with Drizzle 64 18 63 17 94 94 SSW 6 9 29.85 1011 10 16 0.00 0.00
3:58 pm 15:58 Mostly Cloudy with Light Rain 64 17.8 63 17 95 95 SSW 5 7 29.88 1012 10 16 0.01 0.25
4:07 pm 16:07 Mostly Cloudy 64 18 63 17 94 94 WSW 6 9 29.85 1011 10 16 0.00 0.00
4:20 pm 16:20 Mostly Cloudy 66 19 63 17 88 88 SW 6 9 29.85 1011 10 16 0.00 0.00
4:24 pm 16:24 Mostly Cloudy 66 19 63 17 88 88 WSW 7 11 29.85 1011 10 16 0.00 0.00
4:36 pm 16:36 Mostly Cloudy 68 20 63 17 83 83 SW 5 7 29.85 1011 10 16 0.00 0.00
4:58 pm 16:58 Mostly Cloudy 68 19.8 62 16.8 83 83 WSW 6 9 29.88 1012 10 16 0.00 0.03
4:59 pm 16:59 Mostly Cloudy 68 20 63 17 83 83 WSW 8 13 29.85 1011 10 16 0.00 0.00
5:04 pm 17:04 Mostly Cloudy 68 20 63 17 83 83 WSW 9 15 29.85 1011 10 16 0.00 0.00
5:11 pm 17:11 Mostly Cloudy 68 20 61 16 78 78 W 9 15 29.85 1011 10 16 0.00 0.00
5:17 pm 17:17 Mostly Cloudy 68 20 61 16 78 78 W 6 9 29.85 1011 10 16 0.00 0.00
5:22 pm 17:22 Mostly Cloudy 68 20 61 16 78 78 W 9 15 29.83 1010 10 16 0.00 0.00
5:58 pm 17:58 Cloudy 68 19.9 60 15.7 77 77 W 8 13 29.87 1012 10 16 0.00 0.00
6:58 pm 18:58 Mostly Cloudy 69 20.5 59 15.2 72 72 W 7 11 29.87 1012 10 16 0.00 0.00
7:58 pm 19:58 Cloudy 67 19.6 60 15.5 77 77 SW 3 6 29.87 1012 10 16 0.00 0.00
8:58 pm 20:58 Mostly Cloudy 65 18.5 59 14.8 79 79 SSW 5 7 29.88 1012 10 16 0.00 0.00
9:58 pm 21:58 Clear 57 14 56 13.5 97 97 Calm 29.91 1013 10 16 0.00 0.00
10:07 pm 22:07 Clear with Mist and Fog 57 14 55 13 94 94 Calm 29.91 1013 3 4 0.00 0.00
10:16 pm 22:16 Clear with Mist and Fog 55 13 55 13 100 100 Calm 29.91 1013 3 5 0.00 0.00
10:20 pm 22:20 Clear with Mist and Fog 57 14 55 13 94 94 Calm 29.91 1013 2 3 0.00 0.00
10:22 pm 22:22 Clear 55 13 55 13 100 100 SE 2 4 29.91 1013 10 16 0.00 0.00
10:58 pm 22:58 Clear 54 12.4 54 12.1 98 98 E 2 4 29.92 1013 10 16 0.00 0.00
11:58 pm 23:58 Clear 53 11.9 53 11.6 98 98 ESE 3 6 29.92 1013 10 16 0.00 0.00

Powered by AerisWeather